AXM5436 WBGG-WMKP

Flight info

Callsign AXM5436
Flight time N/A
Altitude 36000
Route ESBAL1E ESBAL M761 KETOD Y336 PADLI DCT TEPUS GORVU1F
Aircraft A320/M-SDE3FGHIRWY/LB1

Departure

Time 2026-04-29 13:04
Airport Kuching International Airport (WBGG)

Arrival

Time N/A
Airport Penang International Airport (WMKP)
Time Latitude Longitude Altitude Speed Heading
2026-04-29 12:54 1.48570 110.33973 71 ft 0 kts 338°
2026-04-29 12:55 1.48550 110.33981 74 ft 4 kts 340°
2026-04-29 12:55 1.48525 110.33991 69 ft 4 kts 332°
2026-04-29 12:55 1.48505 110.34003 71 ft 1 kts 315°
2026-04-29 12:55 1.48497 110.34015 72 ft 2 kts 288°
2026-04-29 12:56 1.48497 110.34030 67 ft 1 kts 262°
2026-04-29 12:56 1.48503 110.34054 68 ft 4 kts 243°
2026-04-29 12:56 1.48509 110.34066 71 ft 0 kts 249°
2026-04-29 12:58 1.48507 110.34062 69 ft 4 kts 249°
2026-04-29 12:58 1.48498 110.34038 76 ft 7 kts 249°
2026-04-29 12:59 1.48463 110.34013 76 ft 6 kts 179°
2026-04-29 12:59 1.48434 110.34040 74 ft 7 kts 115°
2026-04-29 12:59 1.48449 110.34110 71 ft 15 kts 68°
2026-04-29 12:59 1.48496 110.34229 75 ft 22 kts 68°
2026-04-29 13:00 1.48561 110.34394 70 ft 27 kts 69°
2026-04-29 13:00 1.48633 110.34574 67 ft 29 kts 68°
2026-04-29 13:00 1.48708 110.34765 73 ft 30 kts 69°
2026-04-29 13:00 1.48787 110.34967 71 ft 31 kts 69°
2026-04-29 13:01 1.48866 110.35165 65 ft 30 kts 68°
2026-04-29 13:01 1.48946 110.35366 65 ft 28 kts 68°
2026-04-29 13:01 1.49022 110.35556 61 ft 30 kts 68°
2026-04-29 13:01 1.49102 110.35757 57 ft 32 kts 68°
2026-04-29 13:02 1.49161 110.35914 59 ft 9 kts 88°
2026-04-29 13:02 1.49118 110.35940 56 ft 8 kts 158°
2026-04-29 13:02 1.49070 110.35962 56 ft 6 kts 153°
2026-04-29 13:02 1.49036 110.35978 58 ft 9 kts 160°
2026-04-29 13:03 1.48968 110.35880 68 ft 39 kts 248°
2026-04-29 13:03 1.48776 110.35395 67 ft 109 kts 248°
2026-04-29 13:03 1.48421 110.34501 96 ft 164 kts 249°
2026-04-29 13:03 1.47986 110.33404 594 ft 174 kts 248°
2026-04-29 13:04 1.47522 110.32274 1313 ft 174 kts 249°
2026-04-29 13:04 1.47048 110.31132 1761 ft 191 kts 250°
2026-04-29 13:04 1.46502 110.29817 2092 ft 215 kts 248°
2026-04-29 13:04 1.45893 110.28347 2493 ft 242 kts 249°
2026-04-29 13:05 1.45226 110.26748 3010 ft 263 kts 248°
2026-04-29 13:05 1.44516 110.24986 3604 ft 282 kts 249°
2026-04-29 13:05 1.43793 110.23178 4670 ft 278 kts 248°
2026-04-29 13:05 1.43057 110.21391 5651 ft 279 kts 248°
2026-04-29 13:06 1.42305 110.19580 6495 ft 285 kts 248°
2026-04-29 13:06 1.41536 110.17708 7293 ft 291 kts 250°
2026-04-29 13:06 1.41247 110.15737 8045 ft 296 kts 277°
2026-04-29 13:06 1.41950 110.13816 8831 ft 298 kts 307°
2026-04-29 13:07 1.43357 110.12288 9638 ft 301 kts 314°
2026-04-29 13:07 1.44613 110.10576 10213 ft 316 kts 301°
2026-04-29 13:07 1.45671 110.08560 10485 ft 338 kts 297°
2026-04-29 13:07 1.46682 110.06403 11074 ft 347 kts 295°
2026-04-29 13:08 1.47661 110.04179 11759 ft 352 kts 294°
2026-04-29 13:08 1.48627 110.01925 12468 ft 356 kts 294°
2026-04-29 13:08 1.49609 109.99637 13168 ft 360 kts 294°
2026-04-29 13:08 1.50609 109.97331 13836 ft 364 kts 294°
2026-04-29 13:09 1.51629 109.95006 14450 ft 367 kts 294°
2026-04-29 13:09 1.52665 109.92662 15058 ft 370 kts 294°
2026-04-29 13:09 1.53714 109.90296 15656 ft 374 kts 294°
2026-04-29 13:09 1.54775 109.87903 16266 ft 377 kts 294°
2026-04-29 13:10 1.55842 109.85501 16865 ft 381 kts 294°
2026-04-29 13:10 1.56557 109.83893 17246 ft 383 kts 294°
2026-04-29 13:10 1.57645 109.81448 17835 ft 387 kts 294°
2026-04-29 13:10 1.58740 109.78980 18383 ft 390 kts 294°
2026-04-29 13:11 1.59856 109.76458 18882 ft 394 kts 294°
2026-04-29 13:11 1.60953 109.73979 19369 ft 397 kts 294°
2026-04-29 13:11 1.62090 109.71414 19870 ft 400 kts 294°
2026-04-29 13:11 1.63223 109.68858 20376 ft 403 kts 294°
2026-04-29 13:12 1.64288 109.66460 20834 ft 406 kts 294°
2026-04-29 13:12 1.65452 109.63835 21336 ft 410 kts 294°
2026-04-29 13:12 1.66596 109.61261 21778 ft 413 kts 294°
2026-04-29 13:12 1.67749 109.58660 22265 ft 416 kts 294°
2026-04-29 13:13 1.68899 109.55993 22755 ft 420 kts 290°
2026-04-29 13:13 1.69739 109.53189 23232 ft 423 kts 285°
2026-04-29 13:13 1.70510 109.50339 23661 ft 426 kts 285°
2026-04-29 13:13 1.71290 109.47468 24057 ft 429 kts 285°
2026-04-29 13:14 1.72075 109.44581 24454 ft 431 kts 285°
2026-04-29 13:14 1.72865 109.41681 24869 ft 433 kts 285°
2026-04-29 13:14 1.73659 109.38770 25260 ft 436 kts 285°
2026-04-29 13:14 1.74460 109.35840 25639 ft 438 kts 285°
2026-04-29 13:15 1.75267 109.32894 26016 ft 440 kts 285°
2026-04-29 13:15 1.76076 109.29933 26377 ft 443 kts 285°
2026-04-29 13:15 1.76887 109.26954 26738 ft 445 kts 285°
2026-04-29 13:15 1.77703 109.23960 27089 ft 448 kts 285°
2026-04-29 13:16 1.78524 109.20950 27428 ft 450 kts 285°
2026-04-29 13:16 1.79348 109.17924 27761 ft 452 kts 285°
2026-04-29 13:16 1.80177 109.14883 28099 ft 455 kts 285°
2026-04-29 13:16 1.81007 109.11825 28434 ft 457 kts 285°
2026-04-29 13:17 1.81838 109.08760 28762 ft 459 kts 284°
2026-04-29 13:17 1.82675 109.05667 29088 ft 461 kts 284°
2026-04-29 13:17 1.83516 109.02573 29406 ft 463 kts 284°
2026-04-29 13:17 1.84366 108.99456 29718 ft 465 kts 285°
2026-04-29 13:18 1.85221 108.96327 30017 ft 468 kts 284°
2026-04-29 13:18 1.86078 108.93188 30275 ft 470 kts 285°
2026-04-29 13:18 1.86942 108.90034 30531 ft 471 kts 285°
2026-04-29 13:18 1.87766 108.87021 30769 ft 473 kts 285°
2026-04-29 13:19 1.88610 108.83918 31017 ft 475 kts 285°
2026-04-29 13:19 1.89478 108.80728 31256 ft 476 kts 285°
2026-04-29 13:19 1.90351 108.77519 31494 ft 478 kts 284°
2026-04-29 13:19 1.91222 108.74320 31810 ft 477 kts 285°
2026-04-29 13:20 1.92094 108.71124 32174 ft 476 kts 285°
2026-04-29 13:20 1.92952 108.67970 32515 ft 475 kts 285°
2026-04-29 13:20 1.93828 108.64746 32882 ft 474 kts 285°
2026-04-29 13:20 1.94680 108.61614 33239 ft 473 kts 285°
2026-04-29 13:21 1.95539 108.58446 33597 ft 472 kts 285°
2026-04-29 13:21 1.96399 108.55284 33943 ft 471 kts 285°
2026-04-29 13:21 1.97256 108.52129 34256 ft 470 kts 285°
2026-04-29 13:21 1.98113 108.48982 34561 ft 469 kts 285°
2026-04-29 13:22 1.98975 108.45845 34863 ft 467 kts 285°
2026-04-29 13:22 1.99846 108.42719 35167 ft 466 kts 285°
2026-04-29 13:22 2.00724 108.39600 35474 ft 464 kts 285°
2026-04-29 13:22 2.01599 108.36497 35768 ft 463 kts 285°
2026-04-29 13:23 2.02471 108.33399 35881 ft 461 kts 285°
2026-04-29 13:23 2.04177 108.27293 35904 ft 454 kts 285°
2026-04-29 13:24 2.05872 108.21223 35903 ft 453 kts 285°
2026-04-29 13:24 2.07563 108.15155 35898 ft 452 kts 285°
2026-04-29 13:25 2.09254 108.09096 35901 ft 452 kts 285°
2026-04-29 13:25 2.11791 108.00046 35899 ft 452 kts 285°
2026-04-29 13:26 2.13476 107.93998 35896 ft 452 kts 285°
2026-04-29 13:26 2.15170 107.87946 35894 ft 452 kts 285°
2026-04-29 13:27 2.16853 107.81892 35893 ft 452 kts 285°
2026-04-29 13:27 2.18530 107.75837 35892 ft 452 kts 285°
2026-04-29 13:28 2.20219 107.69784 35891 ft 452 kts 285°
2026-04-29 13:28 2.21901 107.63732 35893 ft 452 kts 285°
2026-04-29 13:29 2.23582 107.57681 35895 ft 452 kts 285°
2026-04-29 13:29 2.25267 107.51631 35896 ft 452 kts 285°
2026-04-29 13:30 2.26947 107.45580 35897 ft 452 kts 285°
2026-04-29 13:30 2.28627 107.39528 35892 ft 452 kts 285°
2026-04-29 13:31 2.30291 107.33513 35894 ft 452 kts 285°
2026-04-29 13:31 2.31964 107.27455 35895 ft 452 kts 285°
2026-04-29 13:32 2.33640 107.21402 35895 ft 452 kts 285°
2026-04-29 13:32 2.35326 107.15360 35900 ft 451 kts 285°
2026-04-29 13:33 2.37014 107.09306 35899 ft 451 kts 285°
2026-04-29 13:33 2.38690 107.03264 35896 ft 451 kts 285°
2026-04-29 13:34 2.40354 106.97210 35900 ft 451 kts 285°
2026-04-29 13:34 2.42012 106.91154 35901 ft 452 kts 285°
2026-04-29 13:35 2.43675 106.85097 35898 ft 452 kts 285°
2026-04-29 13:35 2.45351 106.79044 35901 ft 452 kts 285°
2026-04-29 13:36 2.47024 106.72988 35904 ft 452 kts 285°
2026-04-29 13:36 2.48693 106.66931 35903 ft 452 kts 286°
2026-04-29 13:37 2.50359 106.60873 35905 ft 452 kts 286°
2026-04-29 13:37 2.52028 106.54817 35906 ft 452 kts 286°
2026-04-29 13:38 2.53689 106.48757 35911 ft 452 kts 285°
2026-04-29 13:38 2.55345 106.42692 35912 ft 452 kts 285°
2026-04-29 13:39 2.57011 106.36631 35907 ft 452 kts 286°
2026-04-29 13:39 2.58692 106.30575 35905 ft 452 kts 286°
2026-04-29 13:40 2.60369 106.24510 35908 ft 452 kts 286°
2026-04-29 13:40 2.62033 106.18494 35909 ft 452 kts 286°
2026-04-29 13:41 2.63709 106.12433 35908 ft 452 kts 286°
2026-04-29 13:41 2.65377 106.06377 35910 ft 451 kts 286°
2026-04-29 13:42 2.67052 106.00317 35910 ft 451 kts 287°
2026-04-29 13:42 2.68738 105.94277 35907 ft 451 kts 286°
2026-04-29 13:43 2.70415 105.88229 35909 ft 451 kts 286°
2026-04-29 13:43 2.72081 105.82178 35907 ft 451 kts 286°
2026-04-29 13:44 2.73750 105.76128 35910 ft 451 kts 286°
2026-04-29 13:44 2.75428 105.70075 35910 ft 451 kts 286°
2026-04-29 13:45 2.77101 105.64027 35909 ft 451 kts 286°
2026-04-29 13:45 2.78758 105.58010 35907 ft 451 kts 286°
2026-04-29 13:46 2.80424 105.51965 35912 ft 451 kts 286°
2026-04-29 13:46 2.82099 105.45915 35909 ft 451 kts 286°
2026-04-29 13:47 2.83771 105.39866 35910 ft 451 kts 286°
2026-04-29 13:47 2.85445 105.33813 35911 ft 451 kts 286°
2026-04-29 13:48 2.87118 105.27764 35910 ft 451 kts 286°
2026-04-29 13:48 2.88782 105.21720 35909 ft 450 kts 286°
2026-04-29 13:49 2.90455 105.15677 35916 ft 450 kts 286°
2026-04-29 13:49 2.92110 105.09685 35915 ft 450 kts 286°
2026-04-29 13:50 2.93779 105.03646 35915 ft 450 kts 286°
2026-04-29 13:50 2.95439 104.97620 35923 ft 450 kts 286°
2026-04-29 13:51 2.97098 104.91585 35923 ft 449 kts 286°
2026-04-29 13:51 2.98767 104.85559 35922 ft 449 kts 286°
2026-04-29 13:52 3.00432 104.79534 35921 ft 449 kts 286°
2026-04-29 13:52 3.02096 104.73511 35915 ft 449 kts 286°
2026-04-29 13:53 3.03759 104.67486 35920 ft 449 kts 286°
2026-04-29 13:53 3.05417 104.61473 35922 ft 449 kts 286°
2026-04-29 13:54 3.06796 104.56469 35919 ft 449 kts 286°
2026-04-29 13:54 3.08454 104.50452 35916 ft 448 kts 286°
2026-04-29 13:55 3.10110 104.44437 35915 ft 448 kts 286°
2026-04-29 13:55 3.11764 104.38424 35914 ft 448 kts 286°
2026-04-29 13:56 3.13414 104.32411 35909 ft 448 kts 286°
2026-04-29 13:56 3.15057 104.26399 35909 ft 448 kts 286°
2026-04-29 13:57 3.16694 104.20386 35910 ft 448 kts 286°
2026-04-29 13:57 3.17750 104.14265 35914 ft 448 kts 271°
2026-04-29 13:58 3.17536 104.08034 35912 ft 448 kts 268°
2026-04-29 13:58 3.17305 104.01804 35911 ft 448 kts 268°
2026-04-29 13:59 3.17079 103.95609 35909 ft 448 kts 268°
2026-04-29 13:59 3.16850 103.89380 35901 ft 448 kts 268°
2026-04-29 14:00 3.16621 103.83110 35902 ft 448 kts 268°
2026-04-29 14:00 3.16401 103.76930 35901 ft 447 kts 269°
2026-04-29 14:01 3.16176 103.70718 35902 ft 446 kts 268°
2026-04-29 14:01 3.15945 103.64511 35902 ft 446 kts 268°
2026-04-29 14:02 3.15709 103.58307 35900 ft 446 kts 268°
2026-04-29 14:02 3.15944 103.52123 35896 ft 444 kts 282°
2026-04-29 14:03 3.17830 103.46267 35890 ft 442 kts 291°
2026-04-29 14:03 3.19966 103.40500 35890 ft 442 kts 291°
2026-04-29 14:04 3.22083 103.34740 35885 ft 441 kts 291°
2026-04-29 14:04 3.24209 103.28972 35887 ft 441 kts 291°
2026-04-29 14:05 3.26335 103.23217 35890 ft 441 kts 291°
2026-04-29 14:05 3.28457 103.17452 35879 ft 441 kts 291°
2026-04-29 14:06 3.30573 103.11694 35883 ft 441 kts 291°
2026-04-29 14:06 3.32684 103.05941 35874 ft 441 kts 291°
2026-04-29 14:07 3.34812 103.00180 35878 ft 441 kts 292°
2026-04-29 14:07 3.36924 102.94461 35881 ft 440 kts 291°
2026-04-29 14:08 3.39043 102.88711 35878 ft 440 kts 291°
2026-04-29 14:08 3.41152 102.82969 35878 ft 440 kts 291°
2026-04-29 14:09 3.43261 102.77223 35873 ft 440 kts 291°
2026-04-29 14:09 3.45375 102.71472 35879 ft 440 kts 291°
2026-04-29 14:10 3.47485 102.65736 35877 ft 440 kts 291°
2026-04-29 14:10 3.49599 102.59986 35881 ft 440 kts 291°
2026-04-29 14:11 3.51706 102.54248 35881 ft 440 kts 291°
2026-04-29 14:11 3.53821 102.48498 35879 ft 440 kts 291°
2026-04-29 14:12 3.55937 102.42755 35885 ft 440 kts 291°
2026-04-29 14:12 3.58049 102.37009 35884 ft 440 kts 291°
2026-04-29 14:13 3.60156 102.31256 35893 ft 440 kts 291°
2026-04-29 14:13 3.62269 102.25501 35891 ft 440 kts 291°
2026-04-29 14:14 3.64373 102.19780 35895 ft 441 kts 291°
2026-04-29 14:14 3.66487 102.14020 35905 ft 441 kts 291°
2026-04-29 14:15 3.68597 102.08257 35908 ft 441 kts 291°
2026-04-29 14:15 3.70708 102.02494 35917 ft 441 kts 291°
2026-04-29 14:16 3.72829 101.96729 35913 ft 441 kts 291°
2026-04-29 14:16 3.74950 101.90950 35914 ft 442 kts 291°
2026-04-29 14:17 3.77070 101.85172 35919 ft 442 kts 291°
2026-04-29 14:17 3.79188 101.79390 35920 ft 442 kts 291°
2026-04-29 14:18 3.81306 101.73597 35922 ft 443 kts 291°
2026-04-29 14:18 3.83412 101.67848 35924 ft 442 kts 291°
2026-04-29 14:19 3.85536 101.62058 35917 ft 443 kts 292°
2026-04-29 14:19 3.87662 101.56263 35905 ft 444 kts 291°
2026-04-29 14:20 3.89790 101.50441 35906 ft 445 kts 291°
2026-04-29 14:20 3.91913 101.44623 35899 ft 445 kts 291°
2026-04-29 14:21 3.94045 101.38815 35905 ft 445 kts 291°
2026-04-29 14:21 3.96180 101.32994 35907 ft 445 kts 292°
2026-04-29 14:22 3.98313 101.27173 35897 ft 445 kts 291°
2026-04-29 14:22 4.00439 101.21345 35896 ft 445 kts 291°
2026-04-29 14:23 4.02562 101.15512 35897 ft 445 kts 291°
2026-04-29 14:23 4.04686 101.09690 35907 ft 445 kts 291°
2026-04-29 14:24 4.06820 101.03855 35908 ft 446 kts 291°
2026-04-29 14:24 4.08958 100.98027 35903 ft 446 kts 291°
2026-04-29 14:25 4.11080 100.92245 35903 ft 445 kts 291°
2026-04-29 14:25 4.13205 100.86415 35900 ft 445 kts 291°
2026-04-29 14:26 4.15457 100.80641 35897 ft 444 kts 300°
2026-04-29 14:26 4.19225 100.75818 35868 ft 441 kts 321°
2026-04-29 14:27 4.21700 100.74019 35860 ft 439 kts 332°
2026-04-29 14:27 4.24444 100.72681 35837 ft 439 kts 338°
2026-04-29 14:27 4.27257 100.71465 35500 ft 442 kts 338°
2026-04-29 14:28 4.32970 100.68981 33709 ft 453 kts 338°
2026-04-29 14:28 4.35863 100.67717 32994 ft 451 kts 338°
2026-04-29 14:28 4.38730 100.66461 32372 ft 448 kts 338°
2026-04-29 14:28 4.41585 100.65213 31773 ft 445 kts 338°
2026-04-29 14:29 4.44413 100.63979 31201 ft 442 kts 338°
2026-04-29 14:29 4.47220 100.62756 30659 ft 438 kts 338°
2026-04-29 14:29 4.50009 100.61543 30129 ft 435 kts 339°
2026-04-29 14:29 4.52773 100.60339 29573 ft 431 kts 339°
2026-04-29 14:30 4.55515 100.59144 29000 ft 428 kts 339°
2026-04-29 14:30 4.58228 100.57960 28416 ft 424 kts 339°
2026-04-29 14:30 4.60925 100.56780 27847 ft 422 kts 339°
2026-04-29 14:30 4.63607 100.55608 27278 ft 419 kts 339°
2026-04-29 14:31 4.66273 100.54446 26733 ft 417 kts 339°
2026-04-29 14:31 4.68925 100.53290 26218 ft 414 kts 339°
2026-04-29 14:31 4.71561 100.52141 25726 ft 412 kts 339°
2026-04-29 14:31 4.74184 100.50997 25230 ft 410 kts 339°
2026-04-29 14:32 4.76790 100.49860 24747 ft 407 kts 339°
2026-04-29 14:32 4.79383 100.48728 24267 ft 405 kts 338°
2026-04-29 14:32 4.81828 100.47328 23798 ft 406 kts 325°
2026-04-29 14:32 4.83903 100.45409 23305 ft 406 kts 311°
2026-04-29 14:33 4.85627 100.43183 22756 ft 404 kts 308°
2026-04-29 14:33 4.87327 100.40949 22238 ft 401 kts 308°
2026-04-29 14:33 4.89017 100.38729 21751 ft 399 kts 308°
2026-04-29 14:33 4.90671 100.36555 21285 ft 396 kts 308°
2026-04-29 14:34 4.92337 100.34370 20826 ft 393 kts 308°
2026-04-29 14:34 4.93989 100.32201 20372 ft 390 kts 308°
2026-04-29 14:34 4.95622 100.30051 19928 ft 387 kts 307°
2026-04-29 14:34 4.97249 100.27912 19482 ft 384 kts 307°
2026-04-29 14:35 4.98864 100.25791 19061 ft 381 kts 307°
2026-04-29 14:35 5.00548 100.23747 18649 ft 378 kts 318°
2026-04-29 14:35 5.02753 100.22396 18256 ft 372 kts 342°
2026-04-29 14:35 5.05276 100.22070 17797 ft 365 kts
2026-04-29 14:36 5.07665 100.22787 17343 ft 357 kts 31°
2026-04-29 14:36 5.09611 100.24289 16878 ft 352 kts 44°
2026-04-29 14:36 5.11426 100.25929 16435 ft 350 kts 44°
2026-04-29 14:36 5.13223 100.27566 16026 ft 347 kts 44°
2026-04-29 14:37 5.15003 100.29190 15627 ft 344 kts 44°
2026-04-29 14:37 5.16765 100.30797 15214 ft 342 kts 44°
2026-04-29 14:37 5.18521 100.32391 14851 ft 339 kts 44°
2026-04-29 14:37 5.20265 100.33969 14466 ft 336 kts 44°
2026-04-29 14:38 5.21990 100.35527 14093 ft 334 kts 44°
2026-04-29 14:38 5.23685 100.37060 13733 ft 331 kts 44°
2026-04-29 14:38 5.24825 100.38093 13447 ft 329 kts 44°
2026-04-29 14:38 5.27069 100.40129 12866 ft 326 kts 44°
2026-04-29 14:39 5.28745 100.41651 12444 ft 324 kts 44°
2026-04-29 14:39 5.30412 100.43162 12023 ft 321 kts 43°
2026-04-29 14:39 5.32067 100.44659 11604 ft 319 kts 43°
2026-04-29 14:39 5.33708 100.46144 11187 ft 317 kts 43°
2026-04-29 14:40 5.35350 100.47628 10612 ft 320 kts 43°
2026-04-29 14:40 5.36474 100.48644 10094 ft 326 kts 43°
2026-04-29 14:40 5.38134 100.50145 9262 ft 323 kts 43°
2026-04-29 14:40 5.39940 100.51493 8404 ft 318 kts 25°
2026-04-29 14:41 5.42089 100.51877 7592 ft 316 kts 355°
2026-04-29 14:41 5.44136 100.51143 6801 ft 315 kts 325°
2026-04-29 14:41 5.45548 100.49516 6165 ft 308 kts 300°
2026-04-29 14:41 5.46373 100.47569 5589 ft 298 kts 289°
2026-04-29 14:42 5.46913 100.45629 5017 ft 289 kts 280°
2026-04-29 14:42 5.46737 100.43680 4493 ft 280 kts 247°
2026-04-29 14:42 5.45620 100.42151 4053 ft 267 kts 222°
2026-04-29 14:42 5.44277 100.40925 3623 ft 256 kts 222°
2026-04-29 14:43 5.42985 100.39744 3180 ft 247 kts 223°
2026-04-29 14:43 5.41733 100.38597 2734 ft 240 kts 223°
2026-04-29 14:43 5.40520 100.37486 2337 ft 232 kts 223°
2026-04-29 14:43 5.39367 100.36438 2078 ft 214 kts 224°
2026-04-29 14:44 5.38313 100.35485 1826 ft 197 kts 225°
2026-04-29 14:44 5.37333 100.34600 1641 ft 183 kts 224°
2026-04-29 14:44 5.36425 100.33780 1390 ft 172 kts 224°
2026-04-29 14:44 5.35563 100.33000 1175 ft 160 kts 224°
2026-04-29 14:45 5.34764 100.32278 987 ft 149 kts 224°
2026-04-29 14:45 5.34004 100.31588 810 ft 145 kts 224°
2026-04-29 14:45 5.33255 100.30906 638 ft 145 kts 222°
2026-04-29 14:45 5.32830 100.30519 558 ft 144 kts 222°